Terug naar catalogus

STARLINK-31002

ActiefCommunicatieVLEO
NORAD 58495·PAYLOAD·🇺🇸 United States

Gelanceerd Dec 3, 2023 vanaf Cape Canaveral Space Force Station

Loading…

Volgende Passages (komende 24 uur)

TLE

VersSource: CelesTrak SupGP

Epoch: Sep 15, 2026, 02:54 UTC

1 58495C 23186Y   26258.12131944 -.00014981  00000+0 -54284-3 0  2587
2 58495  42.9999  74.0783 0001682 265.2901 123.8476 15.27572220    11

Volg STARLINK-31002 in realtime met AllMySat

Download on the App Store